Cozumel (Civ/Mil, Mexico

9:51 PM on December 09, 2016 (GMT +0000)
Cozumel International

Weather History for MMCZ - July, 2013

Change the Weather History Date:

Monday, July 29, 2013

  Actual Average Record
Temperature  
Mean Temperature 78 °F -  
Max Temperature 86 °F 90 °F 93 °F (1997)
Min Temperature 69 °F 76 °F 68 °F (2015)
Cooling Degree Days 12    
Growing Degree Days 28 (Base 50)    
Moisture  
Dew Point 73 °F    
Average Humidity 87    
Maximum Humidity 100    
Minimum Humidity 66    
Precipitation  
Precipitation 0.45 in - - ()
Sea Level Pressure  
Sea Level Pressure 30.04 in    
Wind  
Wind Speed 4 mph ()    
Max Wind Speed 14 mph    
Max Gust Speed 18 mph    
Visibility 7.5 miles    
Events      
Averages and records for this station are not official NWS values.
T = Trace of Precipitation, MM = Missing Value Source: Averaged Metar Reports

Daily Weather History Graph

Daily Weather History Graph

Search for Another Location

Airport or City:

Trip Planner

Search our weather history database for the weather conditions in past years. The results will help you decide how hot, cold, wet, or windy it might be!

Date:

Astronomy

Jul. 29, 2013 Rise Set
Actual Time 6:21 AM CDT 7:26 PM CDT
Civil Twilight 5:57 AM CDT 7:50 PM CDT
Nautical Twilight 5:29 AM CDT 8:18 PM CDT
Astronomical Twilight 5:00 AM CDT 8:47 PM CDT
Moon No Moon Rise 12:56 PM CDT (7/29)
Length of Visible Light 13h 52m
Length of Day
13h 05m
Waning Gibbous, 50% of the Moon is Illuminated
Jul 29
Waning Gibbous
Jul 29
Last Quarter
Aug 6
New
Aug 14
First Quarter
Aug 20
Full

Hourly Weather History & Observations

Time (CDT) Temp. Heat Index Dew Point Humidity Pressure Visibility Wind Dir Wind Speed Gust Speed Precip Events Conditions
12:56 AM 71.6 °F - 71.6 °F 100% 30.01 in 7.0 mi ESE 4.6 mph - N/A   Partly Cloudy
1:40 AM 71.6 °F - 71.6 °F 100% 30.01 in 7.0 mi ESE 3.5 mph - N/A   Clear
2:58 AM 69.8 °F - 69.8 °F 100% 29.99 in 7.0 mi Calm Calm - N/A   Clear
4:04 AM 69.8 °F - 69.8 °F 100% 30.01 in 7.0 mi Calm Calm - N/A   Partly Cloudy
5:01 AM 69.8 °F - 69.8 °F 100% 29.98 in 7.0 mi Calm Calm - N/A   Partly Cloudy
5:40 AM 69.8 °F - 69.8 °F 100% 29.98 in 7.0 mi Calm Calm - N/A   Partly Cloudy
6:42 AM 69.8 °F - 69.8 °F 100% 29.98 in 8.0 mi Calm Calm - N/A   Scattered Clouds
7:50 AM 71.6 °F - 71.6 °F 100% 30.02 in 7.0 mi SE 5.8 mph 18.4 mph N/A   Scattered Clouds
8:42 AM 75.2 °F - 75.2 °F 100% 30.04 in 8.0 mi ESE 4.6 mph - N/A   Scattered Clouds
9:45 AM 82.4 °F 89.5 °F 75.2 °F 79% 30.09 in 8.0 mi East 6.9 mph - N/A   Scattered Clouds
10:40 AM 84.2 °F 92.3 °F 75.2 °F 74% 30.07 in 8.0 mi East 6.9 mph - N/A   Scattered Clouds
11:41 AM 84.2 °F 90.9 °F 73.4 °F 70% 30.08 in 8.0 mi East 6.9 mph - N/A   Mostly Cloudy
12:42 PM 84.2 °F 90.9 °F 73.4 °F 70% 30.06 in 8.0 mi East 8.1 mph - N/A   Scattered Clouds
1:40 PM 86.0 °F 93.4 °F 73.4 °F 66% 30.05 in 8.0 mi East 13.8 mph - N/A   Scattered Clouds
2:48 PM 86.0 °F 95.1 °F 75.2 °F 70% 30.05 in 8.0 mi ENE 9.2 mph - N/A   Scattered Clouds
3:49 PM 84.2 °F 92.3 °F 75.2 °F 74% 30.05 in 8.0 mi ENE 9.2 mph - N/A   Scattered Clouds
4:46 PM 84.2 °F 92.3 °F 75.2 °F 74% 30.02 in 8.0 mi ENE 8.1 mph - N/A   Scattered Clouds
5:49 PM 84.2 °F 89.6 °F 71.6 °F 66% 30.02 in 8.0 mi East 9.2 mph - N/A   Scattered Clouds
6:46 PM 80.6 °F 85.4 °F 73.4 °F 79% 30.01 in 8.0 mi East 6.9 mph - N/A   Partly Cloudy
7:51 PM 77.0 °F - 73.4 °F 89% 30.07 in 7.0 mi ESE 5.8 mph - N/A   Scattered Clouds
8:46 PM 77.0 °F - 73.4 °F 89% 30.08 in 7.0 mi East 3.5 mph - N/A   Scattered Clouds
9:40 PM 77.0 °F - 73.4 °F 89% 30.12 in 7.0 mi East 4.6 mph - N/A   Scattered Clouds
10:41 PM 75.2 °F - 73.4 °F 94% 30.11 in 7.0 mi Calm Calm - N/A   Scattered Clouds
11:44 PM 75.2 °F - 73.4 °F 94% 30.10 in 7.0 mi Calm Calm - N/A   Scattered Clouds